Location: Unspecified
(0.0000°N, 0.0000°E)
Time: 06:44:02
(UTC+00:00)

SR - Pass Details

Date: 17 December 2018
Orbit: 582 x 874 km, 66.7° (Epoch: 15 June)

Event Time Altitude Azimuth Distance (km) Brightness Sun altitude
Rises 11:27:10 0° 356° (N) 2,815 ? 65.6°
Reaches altitude 10° 11:29:35 10° 6° (N) 1,900 ? 65.8°
Maximum altitude 11:33:24 33° 70° (ENE) 987 ? 66.0°
Drops below altitude 10° 11:37:13 10° 135° (SE) 1,905 ? 66.2°
Sets 11:39:38 0° 144° (SE) 2,825 ? 66.3°
